GFSSGP_850_temp_045.txt.gz
Temp
24 21 22 22 26 28 27 27 30 28 29 29 28 29 29 27 27 25 21 21 20 19 18 20 20 19 19 18 17 18 18 17 18 18 18 18 17 17 17 17 16 17 17 17 17 17 16 18 17
24 22 22 26 26 25 27 29 28 28 28 29 29 29 28 27 26 23 23 20 20 20 18 17 20 20 19 16 17 19 19 18 18 19 19 19 18 18 17 16 17 16 17 17 17 17 17 17 17
25 23 26 30 29 27 27 28 28 28 28 29 29 28 26 24 24 24 21 20 20 20 19 19 20 20 20 20 20 19 19 18 18 19 19 19 19 19 18 19 19 17 17 17 17 17 17 17 16
23 25 28 29 27 28 28 28 28 29 28 28 28 28 23 21 22 22 21 21 21 20 19 20 20 19 19 18 18 18 18 18 18 18 19 19 19 19 19 19 19 19 19 17 17 17 17 16 16
24 27 29 28 27 28 28 27 28 29 28 28 28 28 24 20 21 21 21 21 21 20 19 19 19 19 18 17 17 18 18 18 18 18 18 19 19 19 18 18 18 18 19 18 18 17 17 16 16
27 28 29 28 27 28 28 28 28 28 28 27 28 28 23 20 19 20 21 21 21 20 19 18 19 18 18 17 17 17 16 17 17 18 18 18 18 18 18 18 18 19 18 18 18 17 17 17 17
27 29 28 28 27 26 27 27 27 27 27 25 24 28 24 20 19 20 21 21 20 20 19 19 19 19 18 18 18 18 18 16 17 17 17 18 18 18 18 18 18 19 19 18 18 18 17 17 17
26 28 28 27 27 25 26 26 25 25 24 23 21 24 24 18 19 20 20 20 20 19 19 20 20 20 18 16 18 18 18 18 18 18 17 17 18 18 18 18 19 18 18 18 18 18 17 17 16
24 28 28 26 27 25 25 27 24 24 22 20 19 18 18 18 19 20 21 21 20 19 20 20 20 20 20 18 17 18 18 18 18 18 17 17 17 15 16 17 18 18 18 18 18 18 18 17 16
27 27 26 26 26 26 25 25 23 24 23 21 20 18 18 18 19 19 20 20 19 18 18 18 18 19 19 19 18 17 17 16 17 17 17 16 16 16 16 17 18 18 18 18 18 18 18 17 16
26 26 25 24 24 23 24 23 21 24 21 18 18 18 18 18 18 18 18 18 17 16 16 16 17 17 17 17 17 17 16 16 17 17 17 17 17 16 15 15 16 17 18 18 18 18 18 16 15
26 24 24 23 22 23 24 22 19 19 17 16 16 17 18 18 17 17 17 17 17 16 16 16 16 17 17 17 16 16 16 16 16 16 16 16 16 16 16 16 15 15 14 15 15 15 16 18 18
27 24 23 21 21 21 21 21 19 17 16 16 16 16 17 17 17 16 16 16 16 16 15 15 16 16 15 15 14 15 16 15 16 16 16 16 16 15 15 16 16 15 15 15 15 15 15 15 16
24 24 23 22 21 20 21 19 19 16 16 16 16 16 16 16 16 16 16 16 16 15 15 15 15 15 15 14 14 14 14 14 15 15 15 15 15 15 15 15 15 15 15 14 14 15 15 15 15
23 24 23 22 22 21 21 20 20 17 16 17 17 16 15 15 15 15 15 15 15 15 14 14 14 14 14 14 14 14 13 13 13 13 13 14 14 14 14 15 14 14 14 14 14 14 14 15 14
24 25 24 23 22 20 20 23 19 16 17 18 18 17 15 15 15 15 14 14 14 15 14 13 13 13 14 14 14 13 13 13 13 13 12 12 12 13 13 13 14 14 13 13 13 13 13 13 14
25 26 26 22 22 23 21 23 19 16 17 17 18 17 16 15 15 14 14 14 14 14 14 13 13 13 13 13 13 13 13 13 12 12 12 11 11 11 11 11 11 11 12 12 12 12 12 12 13
26 26 26 24 22 22 22 22 19 17 17 17 18 17 16 16 15 14 13 13 13 13 13 13 13 12 12 12 12 12 12 12 12 11 11 11 11 10 10 10 10 10 10 10 10 11 11 11 12
24 24 24 25 22 20 22 22 21 17 16 17 17 17 17 16 14 14 13 13 13 13 13 13 12 12 11 11 11 11 10 11 11 10 10 10 10 10 9 9 10 10 10 10 9 9 10 11 11
23 23 24 24 21 20 22 22 22 19 17 17 17 17 17 16 15 14 14 13 13 13 13 12 12 11 11 10 10 9 10 10 9 10 10 10 9 9 9 9 9 9 9 9 9 9 8 9 10
23 22 23 22 21 21 20 22 22 20 17 17 17 17 17 16 16 15 15 14 13 13 12 11 11 11 10 10 10 9 9 9 9 9 9 9 9 9 9 9 9 9 9 9 9 9 9 8 9
22 21 20 20 20 22 21 23 22 20 17 17 16 16 16 15 15 14 14 14 13 13 12 11 11 10 10 10 9 9 8 8 9 8 8 9 9 8 9 9 9 9 8 8 8 9 9 9 8
21 19 19 19 20 21 22 20 23 21 18 18 17 16 16 15 15 15 14 13 12 12 11 10 10 10 10 9 9 8 8 8 8 8 8 8 8 8 8 8 8 8 8 8 8 8 8 8 8
18 19 19 19 20 20 23 21 25 21 21 20 18 17 16 15 14 13 13 12 12 11 10 10 10 9 9 9 9 8 8 8 7 7 7 7 7 7 8 8 8 8 7 7 7 7 7 7 8
18 20 21 21 20 23 21 20 24 23 20 21 20 18 16 15 14 13 13 12 11 10 10 9 9 9 9 9 8 8 7 7 7 7 7 7 7 7 7 7 7 7 7 7 6 6 6 6 7
20 20 21 21 23 23 19 20 22 19 18 18 18 17 15 14 13 13 12 11 11 10 10 10 9 9 8 8 8 7 7 7 6 6 6 6 6 6 6 6 6 6 6 6 6 6 6 6 6
19 19 18 20 22 20 23 22 19 18 18 17 17 16 15 14 13 12 12 11 11 10 10 9 9 8 8 8 7 7 6 6 5 5 5 5 5 5 5 5 5 5 5 5 5 6 6 6 6
17 17 19 19 20 21 24 23 22 18 18 17 17 16 14 13 12 12 12 11 10 10 9 9 8 8 7 7 6 6 5 5 5 4 4 4 4 4 4 5 4 4 4 4 4 5 5 5 6
17 18 17 18 20 20 20 22 22 21 20 18 17 16 15 14 13 12 11 11 10 10 9 8 8 7 6 6 5 4 4 4 4 3 3 3 3 3 4 4 4 4 4 4 4 5 5 6 6
16 18 19 18 20 19 17 18 22 19 18 17 18 17 16 15 13 11 10 10 10 9 9 8 7 6 5 5 4 3 3 3 2 2 2 2 2 2 2 3 3 3 4 4 4 4 5 5 6

GFSSGP_850_temp_051.txt.gz
Temp
24 24 24 23 20 19 22 24 24 25 25 25 24 23 21 22 21 18 20 20 20 19 20 20 19 18 18 16 17 18 18 18 18 18 18 18 17 17 17 17 16 16 17 17 17 17 17 17 17
24 24 24 24 20 20 22 24 24 25 26 24 24 23 22 21 21 20 20 20 20 19 20 19 19 18 17 16 17 18 18 18 18 18 19 18 18 18 17 18 17 17 16 16 17 17 17 17 17
24 23 23 20 21 21 22 25 25 27 28 27 23 22 21 21 21 21 20 20 20 19 19 18 19 19 18 18 18 18 19 18 18 18 19 19 19 18 18 18 17 17 17 16 16 16 16 17 17
23 23 23 22 22 24 24 25 26 27 27 25 23 20 21 20 21 21 21 20 20 19 19 19 19 19 19 19 18 18 19 18 18 18 19 19 19 19 18 18 18 18 18 17 17 17 16 16 17
24 24 20 21 23 24 25 26 26 21 24 23 23 19 20 21 21 21 21 21 20 19 20 20 20 20 19 19 19 19 19 19 18 18 18 19 19 19 19 19 18 18 18 18 18 17 17 17 16
24 24 21 20 23 24 24 25 24 22 22 22 22 20 19 20 21 21 21 21 20 20 20 20 20 20 20 20 19 19 19 18 18 18 18 18 18 19 19 19 18 18 18 18 18 18 17 16 16
23 20 22 21 22 23 24 26 23 20 20 20 22 19 19 20 20 21 21 21 20 20 19 19 19 19 18 18 19 18 18 17 18 18 17 17 18 18 18 19 18 18 18 18 18 18 18 17 16
24 20 22 23 22 23 25 25 24 23 19 20 21 17 18 20 20 21 21 20 19 19 18 17 18 17 17 17 17 17 18 17 17 17 16 16 17 17 17 17 18 18 18 18 18 18 18 18 17
24 19 20 22 23 23 24 23 23 21 20 19 18 18 19 19 20 20 20 20 19 19 19 18 17 17 17 17 17 17 17 17 17 16 16 16 16 16 16 16 17 17 17 18 18 18 18 18 18
23 18 23 23 23 23 23 23 22 21 19 18 18 18 19 19 20 20 19 19 19 19 19 19 17 17 17 16 16 17 17 17 17 16 16 16 16 16 15 16 16 16 16 16 17 17 18 18 18
24 20 23 22 23 23 22 21 21 19 17 18 18 18 18 18 19 18 18 18 18 18 18 17 17 17 17 16 16 16 16 16 16 16 15 16 15 15 15 15 15 15 15 15 16 16 17 17 17
22 23 24 23 23 23 22 21 18 18 17 18 18 18 18 18 17 17 17 17 17 16 16 16 16 16 16 16 16 16 15 15 15 15 15 16 16 16 15 15 15 15 15 15 14 15 15 15 16
22 23 23 22 22 22 22 19 18 16 17 17 17 18 17 17 17 17 16 16 16 16 15 15 15 15 15 16 15 15 15 15 15 15 15 16 16 16 16 16 16 15 14 14 14 14 14 14 15
24 23 22 22 21 21 19 18 19 17 16 17 17 17 17 17 16 16 16 15 15 15 15 14 14 14 14 14 14 14 14 14 14 14 15 15 15 15 15 15 16 15 15 14 14 14 14 14 14
23 21 20 20 21 20 20 17 16 18 17 17 17 16 16 16 16 16 15 15 15 14 14 14 14 14 14 14 14 14 14 14 14 14 14 14 14 14 15 15 15 14 14 14 14 14 14 14 14
22 21 18 19 20 20 20 17 16 17 17 17 16 16 16 16 15 15 15 15 14 14 14 13 13 14 14 14 14 14 13 13 13 13 13 13 12 12 13 13 14 13 13 13 13 14 14 13 13
19 18 18 20 20 18 18 17 16 17 17 17 16 16 16 16 15 15 14 14 14 14 13 13 13 14 14 14 14 13 13 13 13 13 12 12 11 11 11 11 12 12 12 11 11 11 11 12 13
19 20 21 19 19 17 17 16 15 17 17 17 17 16 16 15 15 15 14 14 14 13 13 13 13 13 13 13 13 13 13 13 13 12 12 12 11 10 10 10 10 10 9 10 10 10 9 9 10
21 20 19 20 20 19 17 16 16 16 17 17 17 16 16 16 15 15 14 13 13 13 13 13 13 13 13 13 13 13 13 12 11 11 11 10 9 9 9 9 9 9 9 9 9 9 9 9 9
20 20 18 19 19 19 17 17 16 15 16 17 17 17 16 16 15 15 15 14 14 13 13 13 13 12 12 12 11 10 10 10 10 10 9 8 8 8 8 8 8 8 8 9 9 8 8 8 8
20 19 18 19 19 18 17 15 17 15 15 17 17 18 17 16 15 15 15 14 14 13 13 13 13 12 12 11 10 10 10 10 9 9 9 8 8 8 8 7 8 8 8 8 8 8 8 8 8
19 18 18 18 16 15 18 13 15 14 13 14 16 17 17 16 16 16 15 14 14 13 13 13 12 12 11 11 10 10 9 9 9 8 8 8 7 7 7 7 7 7 7 7 7 8 8 8 8
18 18 18 18 16 15 15 14 13 13 14 13 14 17 17 17 16 16 15 14 14 14 13 13 12 12 11 10 9 9 9 8 8 8 7 7 7 6 6 6 6 6 6 7 7 7 7 7 7
18 18 16 16 13 12 14 14 14 14 15 14 14 17 17 17 16 16 15 15 14 13 13 12 12 11 10 9 9 9 8 8 8 7 7 7 6 6 5 5 5 5 5 5 6 6 6 6 7
17 14 12 14 12 13 17 15 15 17 16 16 14 16 17 16 16 15 15 14 14 13 12 12 11 10 10 9 9 8 8 8 7 7 6 6 5 5 4 4 4 4 4 5 5 5 5 5 5
15 14 12 16 14 15 16 16 16 15 17 18 18 18 17 16 16 15 15 14 13 12 12 12 10 10 10 9 9 8 8 7 7 6 5 5 4 4 3 3 3 3 3 4 4 4 4 4 5
16 15 15 15 14 13 14 16 16 15 16 16 15 16 16 16 15 15 14 14 13 12 12 11 10 10 9 9 8 8 7 6 6 5 4 4 3 2 2 2 2 2 2 2 2 3 3 4 4
15 15 14 11 14 15 14 16 15 15 15 15 14 15 16 16 15 14 14 13 13 12 11 11 10 10 9 8 8 7 6 5 5 4 3 2 2 2 2 2 1 1 1 1 1 1 2 2 3
13 13 14 12 11 12 12 13 15 15 14 14 14 16 16 16 15 15 14 13 12 11 11 10 9 9 8 8 7 6 5 4 3 2 2 2 1 1 1 1 1 1 0 0 0 -0 0 1 1
15 15 13 10 13 10 7 10 14 12 14 16 15 15 15 15 14 14 14 13 12 11 10 10 9 8 8 7 6 5 4 3 2 2 1 1 0 0 -0 -0 -1 -1 -1 -1 -1 -1 -1 -1 -0

GFSSGP_850_temp_057.txt.gz
Temp
24 23 23 23 19 18 20 22 21 22 20 20 22 21 19 19 19 17 19 19 19 19 19 17 18 18 17 17 17 18 18 18 18 18 18 17 17 17 16 16 16 17 16 17 17 17 17 17 17
24 24 24 24 17 18 19 21 22 21 21 22 21 21 19 19 20 19 19 19 19 19 19 19 19 18 17 18 18 18 18 18 18 18 18 18 18 18 17 17 17 17 17 16 17 17 17 17 17
24 24 24 18 17 19 20 22 21 21 21 22 21 20 19 19 19 20 20 19 19 19 19 19 19 18 17 17 18 18 18 17 18 18 18 18 18 18 18 18 18 18 17 17 17 16 16 16 16
25 24 23 19 22 22 23 22 21 21 22 21 20 18 19 19 20 20 20 20 20 20 19 18 18 17 17 17 17 17 17 17 17 18 18 18 18 18 18 18 18 18 18 17 17 17 16 16 16
25 24 18 20 22 22 21 21 22 20 20 20 20 18 19 18 20 20 20 20 20 19 19 19 18 18 17 17 17 17 17 17 16 16 17 17 17 18 18 18 18 18 18 18 17 17 17 16 16
23 22 19 19 21 22 21 22 21 19 20 20 19 19 20 19 19 19 19 19 19 19 19 19 18 18 18 17 16 17 16 16 16 16 16 16 17 17 17 17 17 17 17 17 18 18 18 17 16
21 17 19 19 21 22 22 22 21 19 19 19 20 18 19 19 19 19 18 18 19 18 18 18 17 16 16 16 16 16 16 16 16 16 16 16 16 16 16 16 16 16 16 16 17 17 17 17 17
24 18 20 20 20 22 22 22 21 20 18 19 20 17 18 18 19 18 17 18 18 19 19 18 17 17 16 15 16 16 15 16 16 16 16 16 16 16 16 15 16 16 16 16 16 16 17 17 17
23 17 19 20 19 22 22 21 20 19 19 19 19 18 18 18 18 18 17 18 19 18 18 18 17 17 17 16 16 16 16 15 16 16 15 15 15 16 16 15 15 15 15 15 15 16 16 16 17
20 18 20 20 21 21 22 21 20 19 18 17 17 17 18 17 18 18 17 18 18 18 17 17 17 17 16 16 15 15 15 15 15 15 15 15 15 15 16 15 15 15 15 15 15 15 15 16 16
21 20 20 22 22 22 21 20 19 18 17 18 17 17 17 17 17 17 17 17 17 17 16 16 16 16 15 15 14 14 14 14 14 14 15 14 15 15 16 15 15 15 15 15 15 15 15 15 15
23 22 22 22 22 22 20 19 18 18 19 19 18 18 17 17 17 17 16 16 16 16 16 16 15 15 15 15 15 15 14 14 14 14 14 14 14 14 14 15 14 14 14 14 14 15 15 15 15
22 21 21 21 21 21 20 18 19 18 18 18 17 17 17 17 17 16 16 15 15 16 15 15 15 15 15 15 14 15 15 14 14 14 14 14 14 14 14 14 14 14 13 13 13 13 13 14 14
22 21 20 20 20 20 19 17 18 17 17 17 17 17 17 17 16 16 15 16 15 15 15 14 15 14 14 14 14 14 14 14 13 14 14 14 14 14 14 13 13 13 13 13 13 13 13 13 13
21 21 19 19 20 19 19 17 15 18 17 16 17 16 16 16 16 16 15 15 15 15 15 15 15 14 14 14 14 14 14 13 13 13 13 13 13 13 12 12 12 12 12 12 12 12 12 12 12
19 17 18 19 18 19 19 17 18 17 17 16 16 16 16 16 16 15 15 15 15 15 15 14 14 14 14 14 14 14 13 13 13 13 12 12 11 11 11 11 11 11 11 11 11 11 11 11 12
16 18 17 17 17 17 17 17 17 16 16 16 15 16 16 15 15 15 15 15 15 15 14 14 14 14 14 14 14 13 13 13 13 12 12 12 11 11 11 11 10 10 10 9 9 9 9 9 9
18 17 17 18 18 16 16 14 15 15 15 16 15 15 15 15 15 15 15 14 14 14 14 14 14 14 14 14 14 13 13 13 12 12 12 11 11 11 11 10 10 10 10 9 9 8 8 8 8
18 18 19 18 18 16 14 14 14 15 14 14 15 15 15 15 15 15 14 14 14 14 14 14 14 13 13 13 13 13 13 12 11 11 11 10 10 10 9 9 10 9 9 9 8 8 8 8 7
19 19 17 17 18 16 16 15 15 14 13 14 15 14 15 15 15 14 14 14 14 14 14 13 13 13 13 12 12 12 12 11 11 11 10 9 9 9 8 8 8 8 7 7 7 7 6 7 6
18 18 17 17 16 16 15 14 15 15 14 14 14 15 15 15 15 15 14 14 14 14 14 13 13 13 13 12 12 11 11 11 11 10 10 9 8 8 7 7 7 7 7 7 6 6 6 6 6
18 17 18 17 15 15 15 13 13 13 11 12 12 14 15 15 15 15 15 15 15 14 14 13 13 13 12 12 11 11 11 11 10 9 9 9 8 8 7 7 7 6 6 6 5 5 5 5 5
17 16 16 16 13 14 13 12 13 12 14 13 11 13 15 15 15 15 15 15 15 14 14 13 13 12 12 11 11 11 11 10 9 9 8 8 8 8 7 7 6 6 5 5 4 4 4 4 4
16 15 12 10 10 11 13 13 13 13 14 12 13 14 15 16 16 15 16 15 15 14 13 13 13 12 12 11 11 10 10 9 9 8 8 8 7 7 7 6 5 5 4 4 3 3 3 3 3
14 13 12 13 12 12 13 12 13 13 14 13 12 15 16 16 16 16 16 15 15 14 14 13 13 12 11 11 10 10 9 9 8 8 7 7 6 6 5 4 4 3 3 2 2 2 2 2 2
14 13 11 15 13 13 12 13 15 14 14 13 14 15 16 16 16 16 16 15 15 14 14 13 12 11 11 10 10 9 9 8 8 7 6 5 5 4 4 3 3 2 2 1 1 1 1 1 1
14 13 12 11 10 11 11 13 15 13 12 13 14 15 16 16 16 16 15 15 14 13 13 12 11 11 10 10 9 9 8 7 7 6 6 5 4 3 3 2 2 1 1 1 1 1 1 0 0
14 12 12 9 14 14 11 12 12 12 13 12 13 16 16 16 15 14 14 13 13 12 12 11 11 10 9 9 8 8 7 7 6 5 5 3 3 3 2 2 1 1 0 -0 -1 -1 -1 -1 -1
12 12 10 9 9 11 11 11 11 13 13 14 14 14 14 15 14 14 13 13 13 12 12 11 10 9 8 8 8 7 6 6 5 4 3 3 3 2 2 1 0 -1 -1 -2 -2 -2 -2 -2 -2
12 12 10 9 12 7 5 9 11 10 11 12 12 13 13 13 13 13 13 13 13 12 11 9 8 8 7 7 7 6 6 5 4 3 3 2 2 1 0 -1 -1 -2 -3 -2 -3 -3 -3 -3 -3

GFSSGP_850_temp_063.txt.gz
Temp
23 23 23 23 22 21 21 22 21 21 21 19 20 21 20 18 20 20 19 19 19 19 18 17 17 17 16 17 17 18 18 18 18 18 17 17 17 16 16 16 16 16 16 16 17 17 17 16 16
23 23 23 23 22 22 22 21 21 20 19 20 20 19 19 19 18 19 19 19 19 18 18 17 17 16 17 17 17 17 17 17 18 18 18 18 17 17 17 17 17 17 16 16 16 16 16 16 16
24 23 24 21 20 22 22 22 20 19 19 20 19 19 18 18 19 19 19 19 19 18 18 18 17 16 17 17 17 17 17 17 17 17 18 18 18 18 18 17 17 17 16 16 16 16 16 16 16
24 24 23 22 22 21 22 21 20 20 20 20 19 19 18 18 19 19 19 19 19 18 18 18 17 16 17 17 16 16 16 17 17 17 17 17 17 18 18 18 17 17 17 17 16 16 16 16 16
24 24 21 21 22 22 21 20 20 21 19 19 19 19 18 18 19 19 19 19 19 18 18 17 17 17 17 17 17 17 16 16 16 16 16 16 17 17 17 17 17 17 17 17 17 17 16 16 16
23 22 22 22 22 22 21 20 20 20 19 18 18 18 18 19 19 19 18 18 18 18 18 17 16 17 16 16 16 16 16 16 16 16 16 16 16 16 16 16 16 16 16 17 17 17 17 17 16
22 21 21 20 21 21 22 20 20 19 19 19 18 19 18 18 19 19 18 18 18 18 17 17 16 16 16 16 15 15 15 15 15 15 15 15 15 15 15 15 16 16 16 16 16 17 17 17 16
23 19 20 20 21 22 20 20 20 20 19 18 19 19 18 18 19 18 18 18 18 17 17 17 16 16 16 15 15 15 15 16 15 15 15 15 15 15 15 15 15 15 15 16 16 16 16 16 17
23 20 21 21 20 22 19 20 19 19 18 18 18 18 18 18 18 18 18 19 18 18 17 17 16 16 16 15 15 15 15 14 14 14 14 15 14 15 15 15 15 15 16 16 15 15 15 15 15
21 20 21 20 20 21 19 20 19 18 17 17 17 17 17 17 17 18 18 19 18 18 18 17 16 16 15 15 14 14 14 14 14 14 14 14 14 15 14 15 15 15 15 15 15 16 15 15 15
20 22 20 20 21 21 20 19 19 18 18 18 18 17 16 16 16 17 18 18 18 18 18 17 16 16 15 15 14 14 14 14 14 13 14 14 14 14 14 14 14 14 15 15 15 15 15 15 15
23 20 21 20 21 21 20 19 18 19 20 20 19 18 16 16 16 17 17 18 18 17 17 16 16 15 15 14 14 14 14 14 14 14 14 14 14 14 14 14 14 14 14 14 14 14 14 14 14
22 20 20 20 21 20 19 18 19 18 19 19 18 17 16 16 16 16 16 16 16 16 16 15 15 15 15 14 14 14 14 14 14 14 14 14 14 14 14 14 14 14 14 14 14 14 14 14 14
20 19 19 20 19 19 19 17 18 18 18 17 17 16 16 16 16 16 16 16 16 16 15 15 15 14 14 14 14 14 14 14 14 14 14 14 13 13 13 13 13 13 13 13 13 13 13 13 13
20 20 19 19 19 18 19 18 17 18 17 16 16 16 16 16 16 17 17 16 16 15 15 14 14 14 13 14 14 13 13 13 13 13 13 13 12 12 12 12 12 12 12 12 12 12 12 12 12
19 18 20 19 18 17 19 20 18 17 16 16 15 15 15 15 16 16 16 15 15 15 14 14 13 13 13 13 13 13 13 12 12 12 12 12 12 11 11 11 11 11 11 11 11 11 11 11 11
17 20 19 19 17 17 18 19 16 15 15 15 15 15 15 15 15 15 15 15 15 14 14 14 13 13 13 13 13 12 12 12 12 12 11 11 11 11 11 10 10 10 10 10 10 10 10 10 10
19 19 18 18 17 17 16 17 16 15 14 14 15 15 14 14 15 15 14 14 14 14 13 13 13 13 13 13 12 12 12 12 12 11 11 11 11 11 10 10 10 10 10 10 10 10 10 10 10
18 18 19 18 17 17 16 16 17 15 13 13 14 14 14 15 15 14 14 14 14 13 13 13 13 13 13 12 12 12 12 12 11 11 11 11 11 10 10 10 10 9 9 9 9 9 9 9 9
18 18 18 17 16 17 15 16 17 14 13 13 14 13 14 14 14 14 14 14 14 14 13 13 13 13 13 12 12 12 12 12 11 11 11 10 10 10 9 9 9 9 9 9 8 8 7 8 8
17 17 17 18 16 15 14 16 16 14 13 13 13 13 14 14 15 15 14 14 14 14 14 13 13 13 13 12 12 12 12 11 11 11 10 10 9 9 9 9 8 8 8 8 8 7 6 5 5
17 16 17 16 16 17 14 17 15 14 15 13 12 12 12 13 14 15 15 15 15 14 14 13 13 13 12 12 12 12 12 11 11 10 10 9 9 9 8 8 8 8 7 7 6 6 5 4 3
16 14 15 14 14 14 14 15 16 14 15 15 13 12 12 12 14 15 15 15 15 14 14 13 13 13 12 12 12 12 11 10 10 10 9 9 8 8 8 8 7 7 7 6 5 5 4 3 3
13 14 12 11 12 14 13 14 16 15 14 13 13 12 13 13 14 14 14 14 14 14 13 13 13 13 12 12 12 11 11 10 9 8 8 8 8 8 8 7 7 6 6 5 5 4 4 3 2
14 14 15 15 15 15 12 13 15 13 13 11 11 11 13 14 14 14 14 14 14 14 13 13 13 12 12 12 11 10 10 9 8 8 8 7 7 7 7 6 6 5 5 5 4 3 3 3 2
13 14 15 16 15 14 12 14 15 13 11 11 11 11 13 13 14 14 14 14 14 13 13 13 13 12 12 11 10 9 8 8 7 7 7 7 6 6 5 5 5 4 4 4 3 3 2 2 1
13 14 12 12 10 12 13 13 14 13 12 10 10 12 12 12 13 13 14 13 13 13 13 13 12 12 11 10 9 8 7 7 7 7 6 6 5 5 4 4 4 3 3 2 2 1 1 -0 -1
13 12 14 12 15 15 14 13 15 13 12 10 10 9 11 12 13 13 13 13 13 12 12 12 12 11 10 9 8 7 7 7 6 6 5 5 4 4 4 3 3 3 2 1 -0 -1 -1 -2 -3
12 12 10 11 11 15 14 15 11 12 11 10 9 9 10 11 11 12 12 12 12 12 11 11 11 9 8 8 7 7 6 6 5 5 5 4 4 3 3 3 3 2 1 -1 -2 -2 -2 -2 -3
11 11 11 13 12 8 10 14 11 10 9 9 8 10 10 11 11 11 11 10 10 10 10 9 8 8 7 7 6 6 6 5 5 4 4 3 3 3 2 2 1 0 -1 -1 -2 -2 -2 -3 -3

GFSSGP_850_temp_069.txt.gz
Temp
23 22 21 21 26 28 27 27 28 27 27 26 26 27 27 26 26 24 19 19 19 18 17 16 17 17 17 18 17 17 18 18 18 18 18 17 17 17 17 17 17 16 17 17 17 17 17 17 17
22 21 21 25 26 26 27 28 27 27 26 26 26 26 27 25 23 21 20 19 19 19 18 17 17 17 17 17 17 17 18 18 18 18 18 18 18 18 18 18 18 17 17 17 17 16 16 16 16
23 21 24 28 29 26 27 28 27 26 25 26 26 25 25 24 23 22 20 19 19 19 18 17 17 17 17 17 17 17 17 17 17 18 18 18 18 18 18 18 18 17 17 17 17 16 16 16 16
22 23 26 28 28 28 29 28 27 26 25 25 26 26 24 23 22 21 20 20 19 19 18 18 17 17 17 16 16 16 17 17 17 17 17 17 17 17 17 17 17 17 17 17 17 17 17 16 16
23 26 28 28 29 29 30 28 27 27 27 26 26 26 24 21 21 20 20 20 19 19 17 17 17 17 17 17 16 17 17 16 17 17 17 17 16 16 17 16 16 16 17 17 17 17 17 17 17
25 27 28 28 29 29 29 28 28 28 27 26 26 26 23 21 21 20 20 20 20 19 18 17 18 17 17 16 16 16 16 16 16 16 16 16 16 16 16 16 16 15 15 16 16 16 17 17 17
25 28 28 29 29 28 29 28 28 28 27 27 26 27 24 21 21 20 20 20 19 19 19 17 16 16 16 16 16 16 16 16 16 16 15 15 15 15 15 15 15 15 15 16 16 16 16 16 16
24 27 28 29 28 28 28 27 27 27 28 24 25 27 25 22 20 20 20 20 20 19 19 17 17 15 16 16 16 16 15 15 15 15 15 15 15 15 15 15 15 15 15 15 16 16 15 15 15
24 27 28 28 28 28 27 27 25 24 26 24 23 24 24 21 20 21 21 21 20 20 20 18 16 16 16 16 16 15 15 14 15 15 14 14 14 14 15 15 15 15 15 15 15 15 15 15 14
26 27 28 30 30 29 27 27 26 25 26 25 23 22 21 20 20 20 21 20 20 20 19 17 16 15 15 14 15 15 14 14 14 14 14 13 14 14 14 14 14 15 14 15 15 15 15 14 14
26 27 29 28 28 28 27 27 26 26 26 26 25 23 21 20 20 21 21 21 21 20 18 18 18 16 15 14 14 14 14 14 13 13 13 13 13 13 13 13 15 15 15 15 15 14 14 15 14
26 27 27 26 25 27 27 27 25 26 26 24 25 24 21 21 21 21 22 22 21 19 17 16 16 16 15 14 14 14 14 14 13 14 13 13 13 12 12 12 13 14 14 13 13 13 12 13 13
25 27 26 25 24 26 26 26 26 25 25 22 23 22 21 21 21 21 21 20 19 17 16 16 15 15 14 14 14 13 13 13 13 13 14 13 13 12 12 12 12 13 13 12 12 12 12 12 12
25 26 25 24 24 24 25 24 23 25 23 22 22 22 21 21 21 20 20 19 18 17 15 15 15 15 15 14 13 13 13 14 14 14 14 13 13 12 12 11 11 12 12 12 11 11 11 11 11
23 24 24 24 24 25 24 24 24 25 22 23 22 22 21 21 20 19 19 18 18 17 16 15 15 15 15 13 13 14 13 13 13 13 13 13 13 12 11 11 12 12 11 12 12 11 11 11 10
23 24 23 24 23 22 22 25 26 23 23 23 23 23 21 20 19 19 18 18 18 16 16 14 14 14 14 13 13 12 12 12 12 12 13 13 13 12 11 11 11 11 11 11 11 11 10 10 9
23 23 22 21 23 24 22 24 23 22 22 23 23 23 21 20 19 19 18 17 17 16 15 14 14 14 14 13 13 12 12 12 12 11 12 12 12 11 10 10 10 10 10 10 10 10 10 9 9
24 23 24 22 22 23 23 23 25 22 22 23 23 23 22 20 19 19 17 17 16 16 15 14 14 14 13 12 12 12 12 12 11 11 11 10 10 11 11 10 9 10 10 9 10 9 9 9 8
24 24 23 21 22 21 23 25 25 25 22 21 21 22 22 21 20 18 17 16 16 15 15 14 14 14 13 12 12 12 12 12 11 11 11 11 11 10 10 10 10 9 9 9 9 8 8 9 7
24 24 23 23 21 21 20 23 25 25 23 21 21 21 22 21 20 18 16 16 15 15 15 15 14 13 13 12 12 13 13 12 11 10 11 11 10 10 10 10 9 9 8 8 8 7 7 6 6
23 23 23 22 21 20 21 21 25 22 21 20 20 19 20 21 20 18 17 16 15 15 15 14 14 13 13 12 12 12 12 12 12 11 10 9 10 10 9 9 8 8 7 7 7 6 6 5 5
23 23 21 22 21 21 22 22 24 23 22 22 21 19 19 19 19 19 17 16 15 15 14 14 14 14 13 12 11 11 11 11 12 11 10 9 8 8 8 7 7 7 6 6 6 6 5 5 5
23 22 22 22 22 22 22 21 24 22 22 21 20 18 17 17 18 18 17 16 15 15 14 13 13 13 13 12 11 11 11 11 11 10 9 8 8 8 7 6 6 6 6 5 5 5 4 4 4
21 21 21 21 22 21 24 22 24 22 20 20 18 17 16 16 17 18 17 16 15 14 13 12 12 13 12 11 11 10 10 10 10 10 9 8 8 7 7 6 6 5 5 5 4 4 3 3 3
21 22 22 21 20 22 21 21 23 20 18 17 18 16 16 15 15 16 15 14 14 13 12 13 12 12 12 11 10 10 9 8 8 8 8 8 7 7 6 5 5 5 4 4 3 3 3 2 2
21 22 22 21 22 23 20 21 21 18 17 17 16 16 16 15 15 15 14 14 14 13 12 12 12 11 11 11 10 9 8 7 7 7 7 6 6 5 5 4 4 3 3 3 3 2 2 2 2
20 20 20 21 22 21 23 21 19 19 18 18 17 16 15 14 14 13 13 13 12 12 11 11 11 11 10 9 9 9 8 7 6 6 6 5 5 4 4 3 3 3 2 2 2 2 2 1 1
19 20 20 20 20 20 23 22 22 18 18 18 17 16 15 14 14 13 12 11 11 11 10 11 10 10 9 9 8 7 7 6 6 5 5 4 4 3 3 3 2 2 2 2 2 1 1 1 1
18 19 20 19 21 20 21 22 21 20 19 18 17 15 14 14 13 13 12 11 11 10 10 9 9 9 8 7 7 6 6 6 5 5 4 4 4 3 3 3 2 2 2 1 1 1 1 1 1
18 20 21 20 20 20 20 20 19 20 18 17 16 14 13 13 12 12 12 11 11 11 10 9 8 8 7 6 6 5 5 5 4 4 4 4 3 3 2 2 2 1 1 1 1 1 0 0 0